Location: Unspecified
(35.7250°N, 0.0000°E)
Time: 20:23:30
(UTC+00:00)

Courier 1B Rocket - Pass Details

Date: 20 August 2020
Orbit: 920 x 1202 km, 28.2° (Epoch: 01 October)

Event Time Altitude Azimuth Distance (km) Brightness Sun altitude
Exits shadow 04:06:10 18° 215° (SW) 2,081 6.2 -15.3°
Maximum altitude 04:07:12 19° 203° (SSW) 2,049 6.3 -15.1°
Drops below altitude 10° 04:11:34 10° 159° (SSE) 2,673 7.2 -14.3°
Sets 04:15:03 0° 143° (SE) 3,662 8.2 -13.7°
